sat.trackr.live / text

‹ back to catalog

STARLINK-35508

NORAD 65912 · 2025-225C

PAYLOAD ACTIVE UNKNOWN

§ Identity

Operator
Country
US
Launch date
2025-10-08
Launch site
AFWTR
Launch vehicle
Mass (kg)
RCS (m²)

Purposes: comms

External: N2YO · Heavens-Above · Gunter

§ Orbital elements

Epoch: 2026-09-20T21:39:38.756160Z

Period
93.85 min
Inclination
53.1600°
Eccentricity
0.0001640
Mean motion
15.34393950 rev/d
Perigee alt
461.6 km
Apogee alt
463.8 km
Semi-major
6,840.9 km
B*
4.0207e-4
RAAN
335.5635°
Arg perigee
85.4849°
Mean anomaly
274.6341°
Rev number
5,434

§ Raw data

STARLINK-355081 65912U 25225C   26263.90253190  .00013230  00000+0  40207-3 0  99912 65912  53.1600 335.5635 0001640  85.4849 274.6341 15.34393950 54344

JSON: /api/v1/satellites/65912 · /tle

For live sub-satellite position, see the globe view (requires WebGL).

§ Visibility from observer

Set your observer location to see the next 7 days of passes ≥ 10°. The values pass through the URL so the page stays shareable.

No JS? Fill the form by hand. The geolocation button needs JavaScript.